700  
ASUS46 KSGX 151011  
RWRSGX  
 
SAN DIEGO HOURLY WEATHER ROUNDUP  
NATIONAL WEATHER SERVICE SAN DIEGO CA  
200 AM PST FRI DEC 15 2017  
 
NOTE: "FAIR" INDICATES FEW OR NO CLOUDS BELOW 12,000 FEET WITH NO  
SIGNIFICANT WEATHER AND/OR S TO VISIBILITY
.  
 
CAZ042-043-060-061-PZZ750-775-151100-  
 
GREATER SAN DIEGO AREA  
 
CITY SKY/WX TMP DP RH WIND PRES REMARKS
 
SAN DIEGO AP CLEAR 52 34 50 W3 30.10S  
NATIONAL CITY N/A 49 35 58 CALM 30.11S  
CHULA VISTA N/A 48 32 54 CALM 30.01R  
IMPERIAL BEACH CLEAR 51 25 36 E10 30.09S  
BROWN FIELD CLEAR 58 16 19 E3 30.09R  
MIRAMAR MCAS CLEAR 60 11 14 E6 30.09R  
MONTGOMERY FLD CLEAR 57 22 25 CALM 30.10R  
GILLESPIE FLD FAIR 43 27 52 CALM 30.10R  
 

 
 
NORTH SAN DIEGO COUNTY  
 
CITY SKY/WX TMP DP RH WIND PRES REMARKS
 
CAMP PENDLETON CLEAR 36 23 59 N3 30.10R  
OCEANSIDE AP NOT AVBL  
OCEANSIDE HBR N/A 58 24 26 E10 30.11S  
VISTA N/A 57 17 21 CALM 30.08R  
CARLSBAD CLEAR 55 21 26 E5 30.08S  
DEL MAR N/A 56 23 27 CALM 30.11R  
LA JOLLA SCRIP N/A 66 24 20 NE3 30.08S  
FALLBROOK N/A 62 13 14 CALM 30.11R  
ESCONDIDO N/A 47 26 43 N2 30.12R  
SAN MARCOS N/A 56 20 24 CALM 30.12R  
POWAY N/A 45 20 37 CALM 30.13S  
 

 
 
EAST SAN DIEGO COUNTY  
 
CITY SKY/WX TMP DP RH WIND PRES REMARKS
 
RAMONA CLEAR 41 13 31 CALM 30.12S  
LA MESA N/A 65 19 17 CALM 30.03R  
JAMUL N/A 49 19 30 CALM 30.11R  
MT. LAGUNA OBS N/A 45 8 21 E30 30.09S  
 

 
 
ORANGE COUNTY AND THE LOS ANGELES BASIN  
 
CITY SKY/WX TMP DP RH WIND PRES REMARKS
 
JOHN WAYNE AP CLEAR 54 51 90 VRB3 30.09R  
LAGUNA BEACH N/A 46 25 44 CALM 30.05R  
LAKE FOREST FR N/A 62 5 10 E3 29.95R  
HUNTINGTON BCH N/A 47 40 77 CALM 30.10R  
LOS ALAMITOS FAIR 46 34 64 CALM 30.09R  
FULLERTON CLEAR 50 30 46 CALM 30.09R  
LONG BEACH CLEAR 52 34 50 CALM 30.10R  
L.A. AP PTCLDY 57 33 40 E3 30.11R  
L.A. DOWNTOWN CLEAR 51 35 54 CALM 30.10R  
 

 
 
THE INLAND EMPIRE  
 
CITY SKY/WX TMP DP RH WIND PRES REMARKS
 
CORONA CLEAR 60 16 18 E9 30.13S  
CHINO CLEAR 65 16 15 E9 30.12S  
ONTARIO PTCLDY 61 9 12 N9 30.12S  
SAN BERNARDINO FAIR 55 10 16 SE6 30.15S  
RIVERSIDE AP CLEAR 59 17 19 S5 30.14R  
MORENO VALLEY N/A 60 21 21 CALM 28.27R  
MARCH ARB CLEAR 45 8 22 CALM 30.16R  
HORSETHIEF CYN N/A 58 2 10 W3 30.14S  
PERRIS N/A 60 20 21 CALM 30.11R  
HEMET EAST N/A 58 -1 9 CALM 30.17S  
FRENCH VALLEY FAIR 50 9 18 NE7 30.14S  
TEMECULA N/A 52 24 33 CALM 30.19R  
 

 
 
SAN BERNARDINO AND RIVERSIDE COUNTY MOUNTAINS  
 
CITY SKY/WX TMP DP RH WIND PRES REMARKS
 
BIG BEAR AP PTCLDY 27 -9 20 E5 30.38S WCI 21  
ANGELUS OAKS N/A 49 -1 12 CALM 30.09F  
 

 
 
SOUTHERN DESERT INCLUDING THE COACHELLA VALLEY  
 
CITY SKY/WX TMP DP RH WIND PRES REMARKS
 
PALM SPRINGS CLEAR 69 11 10 NW6 30.18R  
THOUSAND PALMS N/A 58 17 20 NW2 30.14R  
PALM DESERT N/A 57 28 33 CALM 27.07F  
THERMAL CLEAR 56 20 24 W9 30.13R  
BLYTHE CLEAR 61 18 18 N12 30.17S  
IMPERIAL AP CLEAR 54 24 31 CALM 30.13R  
EL CENTRO NAS N/A 50 19 29 S6 30.15S  
YUMA AZ CLEAR 61 19 19 N13 30.13R  
 

 
 
UPPER DESERT  
 
CITY SKY/WX TMP DP RH WIND PRES REMARKS
 
HESPERIA N/A 38 13 36 CALM 30.41S  
APPLE VALLEY N/A 26 11 52 SW1 30.36S  
PALMDALE PTCLDY 38 11 32 CALM 30.28S  
LANCASTER PTCLDY 30 7 37 W6 30.29R WCI 24  
EDWARDS AFB PTCLDY 29 -2 26 CALM 30.27R  
DAGGETT CLEAR 42 14 32 W8 30.26S  
29 PALMS N CLEAR 46 12 25 W5 30.32S  
NEEDLES CLEAR 61 18 18 N15 30.21S  
 

 
 
REGIONAL REPORTS  
 
CITY SKY/WX TMP DP RH WIND PRES REMARKS
 
SANTA BARBARA CLEAR 41 31 67 CALM 30.10F  
SANDBERG CLEAR 51 11 20 NE10 30.31S  
LAS VEGAS NV CLEAR 45 18 34 S6 30.29S  
PHOENIX AZ CLEAR 59 21 23 CALM 30.14R  
TIJUANA CLEAR 54 19 26 CALM 30.11S  
ENSENADA NW N/A 63 32 31 CALM 29.99S  
 

 
 
OFFSHORE ISLANDS  
 
CITY SKY/WX TMP DP RH WIND PRES REMARKS
 
CATALINA ARPT CLEAR 66 17 15 E9 30.15R  
SAN NICOLAS IS CLEAR 64 11 12 NW7 30.10S  
 

 
 
MARINE AND OFFSHORE BUOY REPORTS  
 
STATION/POSITION SKY/WX TEMP WIND PRES VSBY SWELL
 
AIR SEA DIR/SP/G HT/PER/DIR  
(F) (DEG/KT/KT) (MB) (MI) (FT/S/D)  
TANNER BANKS 61 62 1018.6R  
S CLEMENTE BASIN 59 64 340/ 6/ 8 1018.9R 7/280/16  
SAN NICOLAS IS. 61 N/A 7/300/18  
SO. S. ROSA ISLA 60 60 340/ 6/ 6 1019.2S 8/300/17  
W. S. BARBARA CH 59 59 30/ 4/ 6 1019.0S 7/290/16  
M. S. BARBARA CH 59 60 CALM 1020.2S 3/250/15  
S. MONICA BASIN 61 350/ 6/ 6 1018.7R 3/250/12  
S PEDRO CHANNEL 62 N/A 3/260/14  
CMP PENDLETON NS 62 N/A 2/240/12  
OCEANSIDE OFFSHR 63 N/A 2/260/12  
TORREY PINES OTR 62 N/A 2/280/15  
SAN DIEGO BAY 64 1019.3R  
POINT LOMA SOUTH 64 N/A 3/280/14  
 

 
 
 
 
CLICK HERE TO GO TO PREVIOUS BULLETINS.

The Nexlab CA Page Main Text Page